This demonstration page uses our WeatherBlox Daily Observations layout. Learn more.

Left ArrowRight Arrow

53.62937, 11.41316

Hourly Observations for September 15, 2021

Temp ( °F °C ) Dew Point ( °F °C ) Humidity (%) Winds ( mph kmh ) Pressure ( in mb ) Visibility ( mi km ) Precip ( " mm )
7:50 am 07:50 Mostly Sunny 59 15 55 13 88 88 E 5 7 29.88 1012 7 11 N/A
8:20 am 08:20 Mostly Sunny 59 15 55 13 88 88 E 3 6 29.88 1012 7 11 N/A
8:50 am 08:50 Mostly Sunny 59 15 55 13 88 88 E 5 7 29.88 1012 30 48 N/A
9:20 am 09:20 Mostly Sunny 61 16 55 13 83 83 E 7 11 29.85 1011 30 48 N/A
9:50 am 09:50 Mostly Sunny 61 16 55 13 83 83 E 5 7 29.88 1012 7 11 N/A
10:20 am 10:20 Mostly Sunny 61 16 57 14 88 88 ESE 5 7 29.88 1012 30 48 N/A
10:50 am 10:50 Mostly Sunny 63 17 57 14 83 83 SE 3 6 29.88 1012 7 11 N/A
11:20 am 11:20 Mostly Sunny 63 17 57 14 83 83 VRB 2 4 29.88 1012 30 48 N/A
11:50 am 11:50 Mostly Sunny 63 17 57 14 83 83 E 5 7 29.88 1012 7 11 N/A
12:20 pm 12:20 Mostly Sunny 63 17 57 14 83 83 SE 5 7 29.85 1011 7 11 N/A
12:50 pm 12:50 Partly Cloudy with Light Rain 63 17 57 14 83 83 E 5 7 29.85 1011 30 48 N/A
1:20 pm 13:20 Partly Cloudy with Light Rain 63 17 59 15 88 88 ENE 5 7 29.85 1011 30 48 N/A
1:50 pm 13:50 Partly Cloudy with Light Rain 61 16 61 16 100 100 E 5 7 29.85 1011 5 8 N/A
2:20 pm 14:20 Mostly Cloudy with Light Rain 61 16 61 16 100 100 E 6 9 29.85 1011 5 8 N/A
2:50 pm 14:50 Partly Cloudy with Light Rain 61 16 61 16 100 100 E 5 7 29.83 1010 4 7 N/A
3:20 pm 15:20 Partly Cloudy with Light Rain 61 16 61 16 100 100 E 3 6 29.83 1010 4 6 N/A
3:50 pm 15:50 Mostly Cloudy with Light Rain 61 16 61 16 100 100 E 5 7 29.83 1010 2 4 N/A
4:20 pm 16:20 Mostly Cloudy with Light Rain 61 16 61 16 100 100 E 6 9 29.80 1009 2 4 N/A
4:50 pm 16:50 Mostly Cloudy with Light Rain 61 16 61 16 100 100 E 5 7 29.80 1009 3 5 N/A
5:20 pm 17:20 Mostly Cloudy with Light Rain 63 17 63 17 100 100 E 3 6 29.80 1009 3 5 N/A
5:50 pm 17:50 Mostly Cloudy with Light Rain 63 17 63 17 100 100 VRB 1 2 29.80 1009 2 3 N/A
6:20 pm 18:20 Mostly Cloudy with Light Rain 63 17 63 17 100 100 E 5 7 29.80 1009 3 4 N/A
6:50 pm 18:50 Mostly Cloudy with Mist and Fog 63 17 63 17 100 100 VRB 1 2 29.77 1008 2 4 N/A
7:20 pm 19:20 Mostly Cloudy with Mist and Fog 63 17 63 17 100 100 VRB 1 2 29.80 1009 2 3 N/A
7:50 pm 19:50 Mostly Cloudy with Mist and Fog 63 17 63 17 100 100 VRB 1 2 29.80 1009 1 2 N/A
8:20 pm 20:20 Mostly Cloudy with Mist and Fog 63 17 63 17 100 100 VRB 1 2 29.80 1009 1 2 N/A
8:50 pm 20:50 Mostly Cloudy with Mist and Fog 63 17 63 17 100 100 VRB 1 2 29.80 1009 1 2 N/A
9:20 pm 21:20 Mostly Cloudy with Mist and Fog 63 17 63 17 100 100 VRB 2 4 29.80 1009 1 2 N/A
9:50 pm 21:50 Mostly Cloudy with Mist and Fog 63 17 63 17 100 100 VRB 1 2 29.80 1009 2 4 N/A

Powered by AerisWeather